#timestamp,LO_Frequency,Hit,StdDev 
1577602815.3,286047001.1,N
1577602835.1,286047001.2,N
1577602836.0,286047001.2,N
1577602855.8,286047000.9,N
1577602875.7,286047000.9,N
1577602895.5,286047000.6,N
1577602915.3,286047000.5,N
1577602935.2,286047001.0,N
1577602955.0,286047000.3,N
1577602955.9,286047000.3,N
1577602975.8,286047002.7,N
1577602995.6,286047000.4,N
1577603015.4,286046999.7,N
1577603035.3,286047000.2,N
1577603055.1,286047002.5,N
1577603075.8,286047002.8,N
1577603095.7,286046999.7,N
1577603115.5,286047004.4,Y
1577603135.4,286047000.2,P
1577603155.2,286047000.2,P
1577603175.0,286047000.7,P
1577603175.9,286047000.7,Y
1577603195.8,286047001.1,P
1577603215.6,286046998.2,P
1577603235.5,286046998.6,N
1577603255.3,286046998.8,N
1577603275.1,286046999.4,N
1577603295.9,286046998.3,N
1577603315.7,286046999.8,N
1577603335.5,286046999.7,N
1577603355.4,286047000.0,N
1577603375.2,286047000.6,N
1577603395.1,286047002.6,N
1577603396.0,286047002.6,N
1577603415.8,286047002.2,N
1577603435.6,286047004.0,N
1577603455.5,286047003.8,N
1577603475.3,286047003.1,N
1577603495.2,286047002.1,N
1577603515.9,286047002.1,N
1577603535.7,286047002.6,N
1577603555.6,286047002.1,N
1577603575.4,286047004.0,N
1577603595.2,286047001.7,N
1577603615.1,286047004.1,N
1577603616.0,286047004.1,N
1577603635.8,286047003.1,N
1577603655.7,286047003.8,N
1577603675.5,286047003.8,N
1577603695.3,286047003.9,N
1577603715.2,286047003.8,N
1577603735.0,286047005.9,Y
1577603735.9,286047005.9,P
1577603755.8,286047002.7,N
1577603775.6,286047000.4,N
1577603795.4,286047000.4,N
1577603815.3,286047000.8,N
1577603835.1,286046998.6,N
1577603855.9,286047002.7,N
1577603875.7,286046998.1,N
1577603895.5,286046998.7,N
1577603915.4,286047001.2,N
1577603935.2,286047000.2,N
1577603955.0,286046999.8,N
1577603955.9,286046999.8,N
1577603975.8,286046999.7,N
1577603995.6,286046999.7,N
1577604015.5,286046999.9,N
1577604035.3,286047000.0,N
1577604055.1,286047000.2,N
1577604075.9,286046998.3,N
1577604095.7,286046999.3,N
1577604115.6,286046998.3,N
1577604135.4,286047000.6,N
1577604155.2,286047000.2,N
1577604175.1,286047000.1,N
1577604176.0,286047000.1,N
1577604195.8,286047002.8,N
1577604215.6,286047000.0,N
1577604235.5,286046999.9,N
1577604255.3,286047002.3,N
1577604275.2,286047001.4,N
1577604295.9,286047002.8,N
1577604315.7,286047000.1,N
1577604335.6,286047002.8,N
1577604355.4,286047000.5,N
1577604375.3,286047001.0,N
1577604395.1,286047001.0,N
1577604396.0,286047001.0,N
1577604415.8,286047000.6,N
1577604435.7,286047001.0,N
1577604455.5,286046998.8,N
1577604475.3,286046996.6,Y
1577604495.2,286046999.2,P
1577604515.0,286046999.6,N
1577604515.9,286046999.6,N
1577604535.8,286046998.8,N
1577604555.6,286046998.9,N
1577604575.4,286046998.1,Y
1577604595.3,286047001.0,P
1577604615.1,286046999.8,N
1577604635.8,286047002.7,P
1577604655.7,286046999.9,N
1577604675.5,286047000.8,N
1577604695.4,286046998.1,N
1577604715.2,286046999.4,N
1577604735.0,286046999.2,N
1577604735.9,286046999.2,N
1577604755.8,286046998.3,N
1577604775.6,286046998.4,N
1577604795.4,286047000.6,N
1577604815.3,286047000.9,N
1577604835.1,286047001.0,N
1577604855.9,286046998.5,N
1577604875.7,286046999.8,N
1577604895.5,286047000.1,N
1577604915.4,286046999.9,N
1577604935.2,286047000.0,N
1577604955.0,286046998.3,N
1577604955.9,286046998.3,N
1577604975.8,286046999.0,N
1577604995.6,286046996.9,N
1577605015.5,286046997.3,N
1577605035.3,286046996.5,N
1577605055.1,286046996.6,N
1577605075.9,286046999.5,N
1577605095.7,286046998.7,N
1577605115.5,286046999.3,N
1577605135.4,286046999.1,N
1577605155.2,286046999.2,N
1577605175.1,286046999.2,N
1577605176.0,286046999.2,N
1577605195.8,286046999.5,N
1577605215.6,286046999.3,N
1577605235.5,286046999.3,N
1577605255.3,286046998.8,N
1577605275.1,286046999.3,N
1577605295.9,286046999.5,N
1577605315.7,286046996.8,N
1577605335.6,286046999.4,N
1577605355.4,286047000.3,N
1577605375.2,286047001.1,N
1577605395.1,286046998.7,N
1577605396.0,286046998.7,N
1577605415.8,286046996.7,Y
1577605435.7,286046997.8,P
1577605455.5,286046997.2,P
1577605475.3,286046997.1,P
1577605495.2,286046996.8,Y
1577605515.9,286047001.2,P
1577605535.7,286047000.1,N
1577605555.6,286047000.3,N
1577605575.4,286046999.7,N
1577605595.2,286046999.8,N
1577605615.1,286047002.1,N
1577605616.0,286047002.1,N
1577605635.8,286047002.4,N
1577605655.7,286047002.5,N
1577605675.5,286047000.5,N
1577605695.3,286047000.4,N
1577605715.2,286047000.7,N
1577605735.0,286047000.7,N
1577605735.9,286047000.7,N
1577605755.8,286047001.1,N
1577605775.6,286047000.7,N
1577605795.4,286047001.1,N
1577605815.3,286047000.3,N
1577605835.1,286047002.6,N
1577605836.0,286047002.6,N
1577605855.8,286047001.6,N
1577605875.7,286047004.2,Y
1577605895.5,286047002.8,P
1577605915.4,286047002.8,N
1577605935.2,286047000.8,N
1577605955.0,286046998.3,N
1577605955.9,286046998.3,N
1577605975.8,286046998.9,N
1577605995.6,286046999.2,N
1577606015.4,286046999.0,N
1577606035.3,286046998.6,N
1577606055.1,286047000.4,N
1577606075.9,286047000.9,N
1577606095.7,286046998.2,N
1577606115.5,286046999.4,N
1577606135.4,286047002.3,N
1577606155.2,286047002.8,N
1577606175.0,286047001.9,N
1577606175.9,286047001.9,N
1577606195.8,286047001.3,N
1577606215.6,286047001.6,N
1577606235.5,286047002.3,N
1577606255.3,286047001.5,N
1577606275.1,286047002.2,N
1577606295.9,286047001.9,N
1577606315.7,286047000.3,N
1577606335.5,286047001.0,N
1577606355.4,286047000.6,N
1577606375.2,286047000.9,N
1577606395.1,286047001.0,N
1577606396.0,286047001.0,N
